sat.trackr.live / text

‹ back to catalog

STARLINK-30203

NORAD 57498 · 2023-113D

PAYLOAD ACTIVE UNKNOWN

§ Identity

Operator
Country
US
Launch date
2023-08-07
Launch site
AFETR
Launch vehicle
Mass (kg)
RCS (m²)

Purposes: comms

External: N2YO · Heavens-Above · Gunter

§ Orbital elements

Epoch: 2026-05-25T03:55:28.007904Z

Period
94.27 min
Inclination
43.0063°
Eccentricity
0.0002194
Mean motion
15.27523090 rev/d
Perigee alt
481.7 km
Apogee alt
484.7 km
Semi-major
6,861.4 km
B*
4.4253e-4
RAAN
303.9510°
Arg perigee
252.6534°
Mean anomaly
107.4078°
Rev number
15,539

§ Raw data

STARLINK-302031 57498U 23113D   26145.16351861  .00011914  00000+0  44253-3 0  99982 57498  43.0063 303.9510 0002194 252.6534 107.4078 15.27523090155399

JSON: /api/v1/satellites/57498 · /tle

For live sub-satellite position, see the globe view (requires WebGL).

§ Visibility from observer

Set your observer location to see the next 7 days of passes ≥ 10°. The values pass through the URL so the page stays shareable.

No JS? Fill the form by hand. The geolocation button needs JavaScript.